Location: ????????
(56.1167°N, 38.6333°E)
Time: 11:26:48
(UTC+00:00)

Cosmos 2251 Rocket - Pass Details

Date: 18 November 2025
Orbit: 760 x 788 km, 74.0° (Epoch: 10 December)

Event Time Altitude Azimuth Distance (km) Brightness Sun altitude
Rises 15:48:17 0° 203° (SSW) 3,241 7.1 -21.2°
Reaches altitude 10° 15:50:38 10° 202° (SSW) 2,322 6.3 -21.5°
Maximum altitude 15:55:55 82° 117° (ESE) 796 3.4 -22.2°
Enters shadow 15:58:11 36° 33° (NNE) 1,229 4.2 -22.6°
